This demonstration page uses our WeatherBlox Daily Observations layout. Learn more.

Left ArrowRight Arrow

Hourly Observations for July 7, 2019

Temp ( °F °C ) Dew Point ( °F °C ) Humidity (%) Winds ( mph kmh ) Pressure ( in mb ) Visibility ( mi km ) Precip ( " mm )
12:56 am 00:56 Clear 67 19.4 66 18.9 97 97 SE 6 9 30.10 1019 7 11 0.00 0.03
1:56 am 01:56 Clear with Mist and Fog 66 18.9 65 18.3 96 96 E 3 6 30.09 1019 5 8 0.00 0.00
2:56 am 02:56 Clear with Mist and Fog 66 18.9 65 18.3 96 96 Calm 30.09 1019 6 10 0.00 0.00
3:09 am 03:09 Mostly Clear with Mist and Fog 64 18 64 18 100 100 ESE 3 6 30.07 1018 2 2 0.00 0.00
3:28 am 03:28 Mostly Cloudy with Light Rain 64 18 64 18 100 100 ESE 6 9 30.06 1018 1 1 0.00 0.03
3:36 am 03:36 Mostly Cloudy with Light Rain 64 18 64 18 100 100 ESE 5 7 30.06 1018 1 1 0.00 0.03
3:56 am 03:56 Cloudy with Light Rain 64 17.8 63 17.2 96 96 Calm 30.09 1019 0 0 0.00 0.03
4:12 am 04:12 Cloudy with Light Rain 64 18 64 18 100 100 Calm 30.08 1019 1 1 0.00 0.03
4:15 am 04:15 Cloudy with Light Rain 64 18 64 18 100 100 Calm 30.08 1019 1 2 0.00 0.03
4:22 am 04:22 Cloudy with Light Rain 64 18 64 18 100 100 Calm 30.08 1019 1 1 0.00 0.03
4:25 am 04:25 Mostly Clear with Light Rain 64 18 64 18 100 100 Calm 30.08 1019 1 1 0.00 0.00
4:33 am 04:33 Cloudy with Light Rain 64 18 64 18 100 100 Calm 30.08 1019 1 1 0.00 0.03
4:37 am 04:37 Cloudy with Light Rain 66 19 64 18 94 94 Calm 30.07 1018 1 2 0.00 0.03
4:44 am 04:44 Cloudy with Light Rain 64 18 64 18 100 100 WNW 3 6 30.09 1019 3 5 0.00 0.03
4:56 am 04:56 Cloudy with Mist and Fog 64 17.8 64 17.8 100 100 W 8 13 30.12 1020 5 8 0.00 0.03
5:06 am 05:06 Mostly Cloudy with Light Rain 64 18 64 18 100 100 WNW 6 9 30.11 1020 4 6 0.00 0.00
5:15 am 05:15 Mostly Cloudy 66 19 64 18 94 94 WNW 8 13 30.11 1020 7 11 0.00 0.00
5:24 am 05:24 Mostly Cloudy 66 19 64 18 94 94 WNW 10 17 30.11 1020 7 11 0.00 0.03
5:56 am 05:56 Cloudy with Light Rain 67 19.4 66 18.9 97 97 NNW 5 7 30.13 1020 10 16 0.00 0.03
6:19 am 06:19 Mostly Cloudy 66 19 66 19 100 100 ENE 7 11 30.09 1019 8 13 0.00 0.00
6:56 am 06:56 Sunny 67 19.4 65 18.3 93 93 E 10 17 30.08 1019 7 11 0.00 0.03
7:56 am 07:56 Sunny 68 20 67 19.4 96 96 SSE 3 6 30.09 1019 9 14 0.00 0.00
8:56 am 08:56 Sunny 72 22.2 68 20 87 87 SE 5 7 30.09 1019 10 16 0.00 0.00
9:56 am 09:56 Mostly Sunny 75 23.9 69 20.6 82 82 SSE 9 15 30.09 1019 10 16 0.00 0.00
10:43 am 10:43 Mostly Cloudy 75 24 66 19 74 74 S 9 15 30.03 1017 10 16 0.00 0.00
10:52 am 10:52 Partly Cloudy 77 25 68 20 74 74 SSE 9 15 30.03 1017 10 16 0.00 0.00
10:56 am 10:56 Partly Cloudy 77 25 67 19.4 71 71 S 8 13 30.09 1019 10 16 0.00 0.00
11:24 am 11:24 Mostly Cloudy 79 26 68 20 70 70 SSE 9 15 30.01 1016 10 16 0.00 0.00
11:56 am 11:56 Mostly Cloudy 78 25.6 68 20 71 71 SSE 12 19 30.07 1018 10 16 0.00 0.00
12:18 pm 12:18 Partly Cloudy 79 26 68 20 70 70 S 12 19 29.99 1016 10 16 0.00 0.00
12:56 pm 12:56 Mostly Sunny 79 26.1 67 19.4 67 67 S 14 22 30.05 1018 10 16 0.00 0.00
1:56 pm 13:56 Sunny 80 26.7 67 19.4 64 64 SSE 14 22 30.03 1017 10 16 0.00 0.00
2:56 pm 14:56 Sunny 81 27.2 68 20 65 65 SSE 15 24 30.01 1016 10 16 0.00 0.00
3:56 pm 15:56 Sunny 81 27.2 66 18.9 61 61 SSE 15 24 30.01 1016 10 16 0.00 0.00
4:56 pm 16:56 Sunny 81 27.2 68 20 65 65 SSE 12 19 30.00 1016 10 16 0.00 0.00
5:56 pm 17:56 Sunny 80 26.7 69 20.6 69 69 SSE 9 15 29.98 1015 10 16 0.00 0.00
6:56 pm 18:56 Sunny 79 26.1 68 20 69 69 SSE 9 15 29.96 1014 10 16 0.00 0.00
7:56 pm 19:56 Sunny 79 26.1 69 20.6 72 72 ESE 9 15 29.96 1014 10 16 0.00 0.00
8:56 pm 20:56 Sunny 75 23.9 69 20.6 82 82 SE 7 11 29.96 1015 10 16 0.00 0.00
9:56 pm 21:56 Clear 72 22.2 68 20 87 87 ESE 7 11 29.96 1015 9 14 0.00 0.00
10:56 pm 22:56 Clear 72 22.2 68 20 87 87 SE 9 15 29.97 1015 10 16 0.00 0.00
11:56 pm 23:56 Clear 70 21.1 67 19.4 90 90 SE 6 9 29.97 1015 10 16 0.00 0.00

Powered by AerisWeather